1488852001.1,42451,7.44,72042.5,-13.59,-19.23,-19.95,0,*65
1488852002.38,42452,7.44,72038.8,-13.57,-19.31,-19.95,0,*6B
1488852003.6,42453,7.44,72042.3,-13.59,-19.37,-19.99,0,*6E
1488852004.82,42454,7.44,72040.5,-13.59,-19.51,-20.09,0,*6A
1488852006.1,42455,7.44,72038.0,-13.57,-19.17,-19.81,0,*6D
1488852007.37,42456,7.44,72038.3,-13.59,-19.23,-19.85,0,*63
1488852008.65,42457,7.44,72042.0,-13.57,-19.17,-19.81,0,*6F
1488852009.92,42458,7.44,72040.0,-13.57,-19.23,-19.91,0,*66
1488852011.2,42459,7.44,72038.8,-13.57,-19.17,-19.81,0,*61
1488852012.48,42460,7.44,72036.8,-13.59,-19.27,-19.85,0,*62
1488852013.73,42461,7.44,72042.8,-13.57,-19.17,-19.91,0,*6B
1488852014.97,42462,7.44,72042.0,-13.59,-19.41,-19.99,0,*6D
1488852016.21,42463,7.44,72036.8,-13.59,-19.51,-20.15,0,*63
1488852017.47,42464,7.44,72040.0,-13.59,-19.57,-20.25,0,*61
1488852018.74,42465,7.44,72042.0,-13.59,-19.57,-20.15,0,*63
1488852019.99,42466,7.44,72038.0,-13.59,-19.65,-20.25,0,*62
1488852021.21,42467,7.44,72042.3,-13.59,-19.71,-20.25,0,*66
1488852022.45,42468,7.44,72038.5,-13.59,-19.81,-20.43,0,*66
1488852023.69,42469,7.44,72040.8,-13.55,-19.81,-20.39,0,*66
1488852024.96,42470,7.44,72038.8,-13.57,-19.81,-20.39,0,*6C
1488852026.22,42471,7.44,72040.8,-13.57,-19.75,-20.39,0,*66
1488852027.51,42472,7.5,72046.3,-13.61,-19.65,-20.15,0,*6F
1488852028.8,42473,7.44,72042.0,-13.61,-19.65,-20.15,0,*6E
1488852030.07,42474,7.44,72040.5,-13.61,-19.57,-20.25,0,*6B
1488852031.32,42475,7.44,72042.8,-13.61,-19.51,-20.09,0,*62
1488852032.59,42476,7.44,72044.8,-13.61,-19.41,-20.09,0,*60
1488852033.84,42477,7.44,72040.8,-13.63,-19.61,-20.29,0,*63
1488852035.11,42478,7.44,72040.3,-13.61,-19.57,-20.25,0,*67
1488852036.38,42479,7.44,72038.8,-13.63,-19.57,-20.15,0,*67
1488852037.63,42480,7.44,72042.5,-13.61,-19.37,-19.99,0,*6B
1488852038.88,42481,7.44,72042.8,-13.63,-19.47,-20.19,0,*6D
1488852040.17,42482,7.44,72042.0,-13.61,-19.57,-20.15,0,*61
1488852041.44,42483,7.44,72040.3,-13.63,-19.57,-20.15,0,*62
1488852042.69,42484,7.44,72042.0,-13.61,-19.37,-20.09,0,*6C
1488852043.95,42485,7.44,72042.3,-13.63,-19.41,-20.15,0,*63
1488852045.19,42486,7.44,72042.8,-13.61,-19.51,-20.09,0,*6E
1488852046.41,42487,7.44,72040.5,-13.63,-19.47,-20.05,0,*66
1488852047.65,42488,7.44,72042.0,-13.63,-19.47,-20.15,0,*68
1488852048.92,42489,7.44,72042.5,-13.61,-19.51,-20.15,0,*6C
1488852050.14,42490,7.44,72040.0,-13.63,-19.51,-20.09,0,*6B
1488852051.42,42491,7.44,72040.0,-13.63,-19.61,-20.19,0,*68
1488852052.64,42492,7.44,72040.5,-13.63,-19.75,-20.39,0,*6C
1488852053.91,42493,7.44,72040.5,-13.61,-19.85,-20.59,0,*66
1488852055.13,42494,7.44,72040.8,-13.63,-19.99,-20.63,0,*67
1488852056.36,42495,7.44,72042.0,-13.63,-19.99,-20.63,0,*66
1488852057.6,42496,7.44,72042.0,-13.65,-19.91,-20.49,0,*63
1488852058.85,42497,7.44,72042.5,-13.63,-19.85,-20.39,0,*66
1488852060.09,42498,7.44,72042.3,-13.65,-19.75,-20.35,0,*6C
1488852061.35,42499,7.44,72042.0,-13.65,-19.85,-20.35,0,*62
1488852062.6,42500,7.44,72040.3,-13.65,-19.91,-20.49,0,*6D
1488852063.85,42501,7.44,72040.5,-13.63,-19.91,-20.49,0,*6A
1488852065.12,42502,7.44,72040.3,-13.65,-19.85,-20.53,0,*61
1488852066.38,42503,7.44,72040.8,-13.67,-19.81,-20.39,0,*6A
1488852067.63,42504,7.44,72042.3,-13.67,-19.75,-20.39,0,*66
1488852068.87,42505,7.44,72046.5,-13.65,-19.71,-20.19,0,*63
1488852070.11,42506,7.44,72042.0,-13.65,-19.41,-20.05,0,*6E
1488852071.34,42507,7.44,72042.5,-13.65,-19.51,-20.09,0,*62
1488852072.6,42508,7.44,72044.5,-13.67,-19.51,-20.19,0,*6E
1488852073.82,42509,7.44,72042.8,-13.65,-19.47,-20.05,0,*67
1488852075.07,42510,7.44,72042.5,-13.67,-19.51,-20.09,0,*66
1488852076.31,42511,7.44,72042.5,-13.67,-19.51,-20.09,0,*67
1488852077.58,42512,7.44,72042.5,-13.65,-19.61,-20.19,0,*64
1488852078.86,42513,7.44,72044.8,-13.67,-19.65,-20.25,0,*6C
1488852080.1,42514,7.44,72046.0,-13.65,-19.61,-20.29,0,*61
1488852081.37,42515,7.44,72040.0,-13.67,-19.81,-20.39,0,*6D
1488852082.61,42516,7.44,72040.8,-13.65,-19.91,-20.49,0,*6A
1488852083.86,42517,7.44,72040.3,-13.65,-19.91,-20.53,0,*60
1488852085.11,42518,7.44,72040.0,-13.67,-19.95,-20.59,0,*63
1488852086.34,42519,7.44,72042.3,-13.67,-20.05,-20.73,0,*69
1488852087.61,42520,7.44,72042.3,-13.67,-19.95,-20.53,0,*62
1488852088.88,42521,7.44,72040.5,-13.67,-19.65,-20.09,0,*63
1488852090.16,42522,7.44,72040.3,-13.67,-19.31,-19.95,0,*6E
1488852091.43,42523,7.44,72042.3,-13.67,-19.31,-20.05,0,*6C
1488852092.67,42524,7.44,72040.8,-13.65,-19.31,-19.91,0,*6E
1488852093.95,42525,7.44,72040.5,-13.67,-19.27,-19.95,0,*6E
1488852095.22,42526,7.44,72038.5,-13.67,-19.03,-19.65,0,*64
1488852096.43,42527,7.44,72040.3,-13.65,-18.99,-19.47,0,*65
1488852097.67,42528,7.44,72042.5,-13.65,-18.93,-19.47,0,*60
1488852098.89,42529,7.44,72040.5,-13.65,-18.99,-19.71,0,*6E
1488852100.16,42530,7.44,72040.0,-13.65,-19.23,-19.85,0,*6D
1488852101.38,42531,7.44,72042.5,-13.65,-19.13,-19.75,0,*60
1488852102.6,42532,7.44,72042.5,-13.65,-19.07,-19.71,0,*62
1488852103.87,42533,7.44,72042.8,-13.67,-19.27,-19.91,0,*6D
1488852105.14,42534,7.44,72042.0,-13.67,-19.31,-20.05,0,*6A
1488852106.39,42535,7.44,72042.8,-13.65,-19.31,-19.99,0,*66
1488852107.63,42536,7.44,72040.0,-13.65,-19.47,-20.15,0,*6A
1488852108.87,42537,7.44,72040.3,-13.65,-19.75,-20.35,0,*68
1488852110.13,42538,7.44,72042.3,-13.65,-19.85,-20.35,0,*68
1488852111.38,42539,7.44,72042.8,-13.67,-19.91,-20.43,0,*6F
1488852112.61,42540,7.5,72046.5,-13.65,-19.75,-20.35,0,*68
1488852113.88,42541,7.44,72040.3,-13.67,-19.81,-20.43,0,*61
1488852115.15,42542,7.44,72038.8,-13.67,-19.95,-20.53,0,*66
1488852116.39,42543,7.44,72042.8,-13.65,-19.75,-20.35,0,*6B
1488852117.63,42544,7.44,72042.3,-13.65,-19.85,-20.39,0,*6F
1488852118.88,42545,7.44,72040.5,-13.67,-19.95,-20.59,0,*6B
1488852120.14,42546,7.44,72042.8,-13.67,-20.05,-20.53,0,*61
1488852121.41,42547,7.44,72044.3,-13.67,-20.05,-20.53,0,*60
1488852122.62,42548,7.44,72042.8,-13.69,-19.91,-20.59,0,*6C
1488852123.84,42549,7.44,72044.3,-13.69,-19.91,-20.59,0,*6D
1488852125.06,42550,7.44,72044.5,-13.69,-19.75,-20.39,0,*69
1488852126.31,42551,7.44,72042.0,-13.69,-19.81,-20.35,0,*6F
1488852127.58,42552,7.44,72046.3,-13.69,-19.65,-20.35,0,*66
1488852128.85,42553,7.44,72042.8,-13.69,-19.65,-20.19,0,*69
1488852130.13,42554,7.44,72044.8,-13.71,-19.65,-20.15,0,*6B
1488852131.35,42555,7.44,72046.5,-13.69,-19.47,-20.09,0,*6E
1488852132.59,42556,7.44,72042.0,-13.71,-19.37,-20.09,0,*63
1488852133.81,42557,7.44,72040.8,-13.69,-19.37,-19.95,0,*64
1488852135.08,42558,7.44,72046.0,-13.67,-19.31,-20.05,0,*60
1488852136.34,42559,7.44,72042.3,-13.71,-19.41,-20.09,0,*6D
1488852137.56,42560,7.44,72040.3,-13.69,-19.47,-20.05,0,*64
1488852138.77,42561,7.5,72048.0,-13.69,-19.47,-20.09,0,*69
1488852140.04,42562,7.44,72042.5,-13.67,-19.51,-20.19,0,*62
1488852141.32,42563,7.44,72046.0,-13.67,-19.61,-20.25,0,*6F
1488852142.56,42564,7.44,72042.5,-13.69,-19.61,-20.25,0,*66
1488852143.78,42565,7.44,72038.5,-13.69,-19.47,-20.09,0,*6D
1488852145.05,42566,7.44,72040.3,-13.69,-19.61,-20.19,0,*6B
1488852146.32,42567,7.44,72040.0,-13.69,-19.61,-20.19,0,*6A
1488852147.54,42568,7.44,72044.3,-13.69,-19.51,-20.09,0,*67
1488852148.78,42569,7.44,72046.8,-13.69,-19.51,-20.19,0,*67
1488852150.02,42570,7.44,72042.3,-13.69,-19.75,-20.35,0,*67
1488852151.26,42571,7.44,72042.0,-13.69,-19.65,-20.25,0,*66
1488852152.5,42572,7.44,72042.8,-13.69,-19.81,-20.39,0,*62
1488852153.76,42573,7.44,72044.0,-13.71,-19.85,-20.43,0,*63
1488852154.98,42574,7.44,72040.3,-13.69,-19.91,-20.39,0,*65
1488852156.24,42575,7.44,72040.3,-13.67,-19.81,-20.39,0,*6B
1488852157.48,42576,7.44,72044.5,-13.69,-19.81,-20.43,0,*6B
1488852158.77,42577,7.44,72040.3,-13.71,-19.85,-20.49,0,*6D
1488852160.05,42578,7.44,72042.8,-13.71,-19.81,-20.49,0,*66
1488852161.32,42579,7.44,72042.5,-13.71,-19.85,-20.43,0,*69
1488852162.58,42580,7.44,72040.0,-13.71,-19.81,-20.39,0,*66
1488852163.82,42581,7.44,72042.5,-13.71,-19.71,-20.29,0,*69
1488852165.08,42582,7.44,72040.5,-13.71,-19.65,-20.25,0,*63
1488852166.35,42583,7.44,72040.8,-13.69,-19.61,-20.35,0,*6E
1488852167.62,42584,7.44,72040.8,-13.75,-19.65,-20.29,0,*6D
1488852168.86,42585,7.44,72046.8,-13.71,-19.71,-20.29,0,*6D
1488852170.1,42586,7.44,72040.3,-13.69,-19.85,-20.39,0,*6D
1488852171.36,42587,7.44,72044.5,-13.71,-19.81,-20.29,0,*60
1488852172.62,42588,7.44,72044.5,-13.71,-19.81,-20.39,0,*6E
1488852173.88,42589,7.44,72042.8,-13.71,-19.81,-20.39,0,*6F
1488852175.14,42590,7.44,72040.8,-13.71,-19.65,-20.29,0,*6C
1488852176.43,42591,7.44,72042.8,-13.71,-19.57,-20.15,0,*63
1488852177.67,42592,7.44,72042.8,-13.71,-19.71,-20.25,0,*67
1488852178.93,42593,7.44,72042.5,-13.75,-19.81,-20.29,0,*61
1488852180.19,42594,7.44,72042.5,-13.75,-19.81,-20.43,0,*6A
1488852181.44,42595,7.44,72038.8,-13.71,-19.71,-20.39,0,*6D
1488852182.71,42596,7.44,72042.3,-13.71,-19.65,-20.25,0,*66
1488852183.97,42597,7.44,72042.0,-13.71,-19.51,-20.15,0,*63
1488852185.25,42598,7.44,72046.3,-13.75,-19.41,-20.15,0,*69
1488852186.54,42599,7.44,72044.8,-13.71,-19.57,-20.15,0,*6B
1488852187.81,42600,7.44,72044.3,-13.75,-19.65,-20.25,0,*6E
1488852189.08,42601,7.44,72042.5,-13.75,-19.51,-20.15,0,*6B
1488852190.34,42602,7.44,72042.8,-13.75,-19.51,-20.15,0,*68
1488852191.63,42603,7.44,72040.8,-13.75,-19.57,-20.15,0,*6F
1488852192.88,42604,7.44,72044.0,-13.77,-19.61,-20.29,0,*60
1488852194.15,42605,7.44,72044.0,-13.75,-19.65,-20.25,0,*6B
1488852195.4,42606,7.44,72046.3,-13.75,-19.71,-20.39,0,*60
1488852196.66,42607,7.44,72044.3,-13.75,-19.71,-20.39,0,*61
1488852197.92,42608,7.44,72044.0,-13.75,-19.65,-20.29,0,*6A
1488852199.14,42609,7.44,72046.5,-13.77,-19.75,-20.29,0,*68
1488852200.39,42610,7.44,72042.8,-13.71,-19.71,-20.39,0,*63
1488852201.65,42611,7.44,72046.0,-13.71,-19.81,-20.39,0,*6D
1488852202.91,42612,7.44,72040.0,-13.75,-19.81,-20.39,0,*6A
1488852204.18,42613,7.44,72044.8,-13.75,-19.65,-20.29,0,*60
1488852205.47,42614,7.44,72044.5,-13.75,-19.57,-20.15,0,*69
1488852206.72,42615,7.44,72040.5,-13.75,-19.71,-20.29,0,*63
1488852207.98,42616,7.44,72040.0,-13.75,-19.81,-20.39,0,*6E
1488852209.25,42617,7.44,72042.3,-13.75,-19.85,-20.43,0,*66
1488852210.5,42618,7.44,72042.8,-13.75,-19.81,-20.29,0,*61
1488852211.77,42619,7.44,72040.8,-13.75,-19.81,-20.39,0,*61
1488852213.02,42620,7.44,72042.3,-13.77,-19.75,-20.49,0,*65
1488852214.26,42621,7.44,72040.3,-13.75,-19.71,-20.29,0,*64
1488852215.49,42622,7.44,72042.3,-13.77,-19.71,-20.43,0,*69
1488852216.74,42623,7.44,72042.0,-13.75,-19.81,-20.29,0,*69
1488852217.99,42624,7.44,72042.3,-13.77,-19.71,-20.35,0,*6E
1488852219.23,42625,7.44,72042.8,-13.75,-19.71,-20.29,0,*60
1488852220.48,42626,7.44,72042.3,-13.77,-19.85,-20.43,0,*66
1488852221.74,42627,7.44,72044.3,-13.75,-19.85,-20.43,0,*65
1488852222.98,42628,7.44,72046.5,-13.77,-19.81,-20.39,0,*61
1488852224.23,42629,7.44,72044.0,-13.77,-19.57,-20.29,0,*6A
1488852225.5,42630,7.44,72042.0,-13.77,-19.61,-20.19,0,*64
1488852226.76,42631,7.44,72042.5,-13.75,-19.81,-20.29,0,*6A
1488852228.06,42632,7.44,72040.8,-13.75,-19.65,-20.19,0,*60
1488852229.33,42633,7.44,72042.0,-13.77,-19.57,-20.19,0,*62
1488852230.59,42634,7.44,72042.8,-13.77,-19.41,-20.15,0,*6E
1488852231.86,42635,7.44,72044.5,-13.75,-19.57,-20.09,0,*67
1488852233.14,42636,7.44,72044.0,-13.77,-19.61,-20.19,0,*62
1488852234.39,42637,7.44,72042.0,-13.75,-19.37,-20.09,0,*63
1488852235.63,42638,7.44,72042.0,-13.77,-19.41,-20.05,0,*63
1488852236.9,42639,7.44,72046.5,-13.75,-19.31,-19.99,0,*68
1488852238.16,42640,7.44,72046.0,-13.77,-19.57,-20.15,0,*6A
1488852239.44,42641,7.44,72046.3,-13.75,-19.57,-20.09,0,*64
1488852240.68,42642,7.44,72046.0,-13.75,-19.37,-19.99,0,*62
1488852241.93,42643,7.44,72042.8,-13.75,-19.37,-20.09,0,*60
1488852243.17,42644,7.44,72042.8,-13.75,-19.37,-19.99,0,*64
1488852244.45,42645,7.44,72044.5,-13.75,-19.57,-20.09,0,*60
1488852245.74,42646,7.44,72046.0,-13.75,-19.57,-20.15,0,*6E
1488852247.01,42647,7.44,72042.0,-13.77,-19.61,-20.19,0,*64
1488852248.28,42648,7.44,72040.5,-13.77,-19.57,-20.15,0,*62
1488852249.55,42649,7.44,72046.5,-13.75,-19.41,-20.09,0,*6B
1488852250.82,42650,7.44,72044.0,-13.75,-19.57,-20.25,0,*6A
1488852252.06,42651,7.44,72042.3,-13.71,-19.71,-20.29,0,*67
1488852253.33,42652,7.44,72040.3,-13.75,-19.81,-20.39,0,*6E
1488852254.59,42653,7.44,72042.5,-13.71,-19.81,-20.39,0,*6B
1488852255.84,42654,7.44,72046.3,-13.75,-19.81,-20.29,0,*69
1488852257.11,42655,7.44,72044.3,-13.77,-19.85,-20.35,0,*63
1488852258.35,42656,7.44,72044.5,-13.77,-19.81,-20.39,0,*68
1488852259.6,42657,7.44,72038.8,-13.75,-19.71,-20.39,0,*64
1488852260.84,42658,7.44,72040.8,-13.77,-19.85,-20.43,0,*6F
1488852262.09,42659,7.44,72040.3,-13.77,-19.91,-20.53,0,*6A
1488852263.3,42660,7.44,72040.0,-13.77,-20.05,-20.63,0,*64
1488852264.55,42661,7.44,72042.5,-13.75,-19.99,-20.73,0,*69
1488852265.76,42662,7.44,72042.8,-13.77,-20.05,-20.69,0,*6C
1488852267.02,42663,7.44,72044.0,-13.77,-20.19,-20.79,0,*61
1488852268.3,42664,7.44,72042.3,-13.79,-20.15,-20.79,0,*64
1488852269.54,42665,7.44,72042.5,-13.79,-20.05,-20.69,0,*65
1488852270.77,42666,7.44,72040.5,-13.79,-20.05,-20.69,0,*66
1488852272.04,42667,7.44,72042.0,-13.79,-20.05,-20.83,0,*63
1488852273.28,42668,7.44,72040.3,-13.81,-20.05,-20.83,0,*6B
1488852274.56,42669,7.44,72042.3,-13.79,-20.15,-20.79,0,*69
1488852275.78,42670,7.44,72042.0,-13.81,-20.05,-20.59,0,*65
1488852277.05,42671,7.44,72040.0,-13.79,-19.91,-20.49,0,*65
1488852278.28,42672,7.44,72046.0,-13.81,-19.75,-20.39,0,*6C
1488852279.52,42673,7.44,72040.0,-13.79,-19.75,-20.29,0,*6B
1488852280.76,42674,7.44,72040.5,-13.79,-19.75,-20.29,0,*6C
1488852281.99,42675,7.44,72044.0,-13.81,-19.75,-20.39,0,*6B
1488852283.26,42676,7.44,72042.8,-13.83,-19.81,-20.39,0,*61
1488852284.48,42677,7.44,72042.3,-13.81,-19.75,-20.39,0,*69
1488852285.78,42678,7.44,72042.0,-13.79,-19.57,-20.19,0,*63
1488852287.08,42679,7.44,72042.0,-13.79,-19.57,-20.19,0,*62
1488852288.35,42680,7.44,72036.3,-13.79,-19.47,-20.19,0,*65
1488852289.62,42681,7.44,72042.5,-13.79,-19.37,-20.15,0,*6F
1488852290.87,42682,7.44,72042.8,-13.79,-19.37,-20.05,0,*6D
1488852292.16,42683,7.44,72040.8,-13.79,-19.57,-20.15,0,*6B
1488852293.39,42684,7.44,72042.0,-13.81,-19.75,-20.29,0,*64
1488852294.65,42685,7.44,72040.8,-13.77,-19.85,-20.35,0,*6E
1488852295.92,42686,7.44,72042.5,-13.79,-19.91,-20.53,0,*66
1488852297.19,42687,7.44,72040.3,-13.79,-19.75,-20.49,0,*66
1488852298.46,42688,7.44,72040.5,-13.81,-19.81,-20.53,0,*6E
1488852299.72,42689,7.44,72044.0,-13.81,-19.81,-20.49,0,*64
1488852300.98,42690,7.44,72044.0,-13.81,-19.61,-20.25,0,*68
1488852302.25,42691,7.44,72044.8,-13.79,-19.47,-20.19,0,*65
1488852303.52,42692,7.44,72046.3,-13.79,-19.41,-20.05,0,*6D
1488852304.77,42693,7.44,72046.3,-13.79,-19.37,-20.05,0,*6D
1488852306.01,42694,7.44,72044.5,-13.81,-19.41,-20.09,0,*60
1488852307.28,42695,7.44,72044.3,-13.79,-19.47,-20.15,0,*6D
1488852308.53,42696,7.44,72044.5,-13.81,-19.51,-20.19,0,*62
1488852309.8,42697,7.44,72046.0,-13.81,-19.65,-20.35,0,*6A
1488852311.07,42698,7.44,72046.0,-13.79,-19.71,-20.19,0,*69
1488852312.32,42699,7.44,72046.3,-13.81,-19.91,-20.49,0,*64
1488852313.56,42700,7.44,72044.8,-13.81,-19.75,-20.35,0,*64
1488852314.81,42701,7.44,72044.0,-13.81,-19.75,-20.35,0,*65
1488852316.06,42702,7.44,72046.3,-13.81,-19.61,-20.25,0,*62
1488852317.31,42703,7.44,72044.5,-13.81,-19.41,-20.05,0,*63
1488852318.58,42704,7.44,72040.8,-13.81,-19.23,-19.81,0,*66
1488852319.83,42705,7.44,72046.5,-13.79,-19.37,-19.99,0,*6C
1488852321.05,42706,7.44,72044.0,-13.81,-19.51,-20.09,0,*6B
1488852322.33,42707,7.44,72044.5,-13.79,-19.27,-19.91,0,*67
1488852323.62,42708,7.44,72044.8,-13.79,-19.23,-19.85,0,*69
1488852324.88,42709,7.44,72044.0,-13.81,-19.31,-20.09,0,*62
1488852326.17,42710,7.44,72044.5,-13.79,-19.61,-20.15,0,*65
1488852327.41,42711,7.44,72046.0,-13.79,-19.75,-20.29,0,*6E
1488852328.68,42712,7.44,72044.8,-13.79,-19.85,-20.43,0,*6E
1488852329.9,42713,7.44,72044.5,-13.81,-19.75,-20.25,0,*67
1488852331.2,42714,7.44,72044.8,-13.79,-19.61,-20.19,0,*6D
1488852332.43,42715,7.44,72044.0,-13.81,-19.51,-20.25,0,*67
1488852333.73,42716,7.44,72044.8,-13.79,-19.57,-20.19,0,*6A
1488852334.95,42717,7.44,72044.5,-13.81,-19.47,-20.09,0,*6C
1488852336.2,42718,7.44,72046.0,-13.79,-19.37,-19.91,0,*68
1488852337.46,42719,7.44,72046.5,-13.81,-19.27,-19.95,0,*6B
1488852338.71,42720,7.44,72046.5,-13.77,-19.27,-19.99,0,*64
1488852339.96,42721,7.44,72044.3,-13.79,-19.13,-19.75,0,*6E
1488852341.24,42722,7.44,72046.8,-13.79,-19.13,-19.85,0,*62
1488852342.51,42723,7.44,72050.0,-13.79,-19.23,-19.75,0,*6F
1488852343.75,42724,7.44,72050.0,-13.77,-19.23,-19.75,0,*66
1488852344.99,42725,7.44,72042.8,-13.75,-19.07,-19.51,0,*65
1488852346.24,42726,7.44,72046.8,-13.77,-19.07,-19.61,0,*67
1488852347.51,42727,7.44,72044.5,-13.77,-19.23,-19.85,0,*6A
1488852348.73,42728,7.44,72044.8,-13.77,-19.37,-19.99,0,*6D
1488852349.96,42729,7.44,72046.0,-13.77,-19.47,-20.15,0,*65
1488852351.2,42730,7.44,72046.0,-13.77,-19.41,-19.91,0,*6D
1488852352.43,42731,7.44,72044.3,-13.77,-19.37,-19.99,0,*65
1488852353.67,42732,7.44,72044.0,-13.75,-19.17,-19.71,0,*60
1488852354.94,42733,7.44,72042.3,-13.75,-19.23,-19.95,0,*6C
1488852356.18,42734,7.44,72040.0,-13.75,-19.07,-19.71,0,*67
1488852357.45,42735,7.44,72044.8,-13.75,-19.03,-19.65,0,*67
1488852358.72,42736,7.44,72042.5,-13.75,-19.17,-19.81,0,*6B
1488852359.98,42737,7.44,72040.8,-13.71,-19.17,-19.85,0,*6A
1488852361.25,42738,7.44,72042.3,-13.75,-19.03,-19.65,0,*6A
1488852362.55,42739,7.44,72044.3,-13.75,-18.93,-19.57,0,*62
1488852363.83,42740,7.44,72040.0,-13.75,-18.89,-19.41,0,*60
1488852365.1,42741,7.44,72042.3,-13.75,-19.03,-19.65,0,*64
1488852366.36,42742,7.44,72042.5,-13.71,-18.73,-19.31,0,*64
1488852367.64,42743,7.44,72040.3,-13.71,-18.59,-19.23,0,*6E
1488852368.9,42744,7.44,72042.8,-13.71,-18.65,-19.23,0,*66
1488852370.11,42745,7.44,72042.5,-13.69,-18.45,-19.13,0,*6F
1488852371.35,42746,7.44,72040.0,-13.69,-18.59,-19.13,0,*61
1488852372.56,42747,7.44,72042.5,-13.69,-18.69,-19.17,0,*67
1488852373.8,42748,7.44,72038.5,-13.69,-18.55,-19.13,0,*63
1488852375.03,42749,7.44,72040.3,-13.69,-18.35,-18.99,0,*67
1488852376.27,42750,7.44,72042.5,-13.69,-18.35,-18.99,0,*6F
1488852377.53,42751,7.44,72038.8,-13.65,-18.35,-18.93,0,*68
1488852378.76,42752,7.44,72040.3,-13.67,-18.25,-19.03,0,*60
1488852379.98,42753,7.44,72042.8,-13.65,-18.41,-18.99,0,*63
1488852381.19,42754,7.44,72040.3,-13.65,-18.49,-19.13,0,*6F
1488852382.43,42755,7.44,72044.8,-13.65,-18.65,-19.27,0,*67
1488852383.68,42756,7.44,72046.3,-13.63,-18.83,-19.41,0,*6A
1488852384.96,42757,7.44,72040.0,-13.63,-18.93,-19.57,0,*6D
1488852386.2,42758,7.44,72044.5,-13.65,-19.07,-19.61,0,*6D
1488852387.44,42759,7.44,72042.0,-13.65,-18.99,-19.61,0,*6A
1488852388.66,42760,7.44,72042.8,-13.65,-18.83,-19.47,0,*6F
1488852389.94,42761,7.44,72044.0,-13.63,-18.93,-19.57,0,*68
1488852391.16,42762,7.44,72044.0,-13.63,-18.99,-19.71,0,*65
1488852392.43,42763,7.44,72042.5,-13.63,-19.23,-19.85,0,*6F
1488852393.68,42764,7.44,72044.3,-13.63,-18.99,-19.57,0,*67
1488852394.92,42765,7.44,72044.5,-13.63,-18.69,-19.27,0,*6E
1488852396.17,42766,7.44,72046.0,-13.63,-18.69,-19.27,0,*6D
1488852397.41,42767,7.44,72046.3,-13.63,-18.65,-19.23,0,*64
1488852398.69,42768,7.44,72044.5,-13.61,-18.59,-19.23,0,*66
1488852399.95,42769,7.44,72046.8,-13.61,-18.73,-19.23,0,*6F
1488852401.2,42770,7.44,72044.5,-13.61,-18.79,-19.37,0,*68
1488852402.46,42771,7.44,72048.0,-13.61,-18.89,-19.51,0,*66
1488852403.7,42772,7.44,72044.3,-13.63,-18.93,-19.47,0,*6B
1488852404.99,42773,7.44,72046.0,-13.61,-18.89,-19.41,0,*65
1488852406.26,42774,7.44,72046.0,-13.61,-18.79,-19.41,0,*6D
1488852407.52,42775,7.44,72046.0,-13.61,-18.89,-19.51,0,*62
1488852408.81,42776,7.44,72040.5,-13.61,-18.89,-19.41,0,*60
1488852410.07,42777,7.44,72040.3,-13.61,-18.89,-19.51,0,*60
1488852411.35,42778,7.44,72044.3,-13.61,-19.03,-19.57,0,*6A
1488852412.61,42779,7.44,72042.0,-13.61,-18.93,-19.51,0,*65
1488852413.9,42780,7.44,72042.0,-13.61,-18.89,-19.41,0,*69
1488852415.17,42781,7.44,72042.0,-13.61,-18.65,-19.27,0,*6A
1488852416.39,42782,7.44,72044.5,-13.59,-18.73,-19.37,0,*64
1488852417.63,42783,7.44,72040.3,-13.59,-18.79,-19.27,0,*6E
1488852418.87,42784,7.44,72044.0,-13.59,-18.89,-19.51,0,*67
1488852420.16,42785,7.44,72046.3,-13.57,-18.59,-19.23,0,*60
1488852421.43,42786,7.44,72042.8,-13.57,-18.59,-19.17,0,*64
1488852422.71,42787,7.44,72044.0,-13.57,-18.69,-19.23,0,*61
1488852423.91,42788,7.44,72046.5,-13.55,-18.45,-19.03,0,*60
1488852425.12,42789,7.44,72050.8,-13.55,-18.45,-19.03,0,*61
1488852426.36,42790,7.44,72042.8,-13.57,-18.41,-18.99,0,*6D
1488852427.61,42791,7.44,72040.8,-13.57,-18.45,-18.99,0,*68
1488852428.85,42792,7.44,72040.8,-13.57,-18.45,-19.03,0,*69
1488852430.12,42793,7.44,72042.3,-13.57,-18.59,-19.17,0,*60
1488852431.39,42794,7.44,72042.0,-13.57,-18.73,-19.31,0,*6B
1488852432.66,42795,7.44,72040.0,-13.57,-18.69,-19.23,0,*62
1488852433.93,42796,7.44,72046.5,-13.57,-18.59,-19.17,0,*65
1488852435.2,42797,7.44,72046.0,-13.53,-18.79,-19.31,0,*66
1488852436.42,42798,7.44,72040.8,-13.55,-18.49,-19.17,0,*68
1488852437.67,42799,7.44,72042.0,-13.53,-18.35,-19.07,0,*65
1488852438.88,42800,7.44,72040.5,-13.55,-18.21,-18.99,0,*6F
1488852440.14,42801,7.44,72046.5,-13.53,-18.35,-18.99,0,*6D
1488852441.35,42802,7.44,72040.0,-13.55,-18.41,-19.03,0,*69
1488852442.64,42803,7.44,72046.0,-13.53,-18.35,-18.93,0,*65
1488852443.87,42804,7.44,72040.5,-13.49,-18.49,-19.07,0,*6E
1488852445.11,42805,7.44,72040.8,-13.49,-18.41,-19.07,0,*67
1488852446.34,42806,7.44,72040.8,-13.49,-18.41,-18.99,0,*62
1488852447.58,42807,7.44,72042.5,-13.49,-18.49,-19.07,0,*6D
1488852448.8,42808,7.44,72046.3,-13.47,-18.65,-19.13,0,*67
1488852450.04,42809,7.44,72040.3,-13.47,-18.59,-19.13,0,*69
1488852451.3,42810,7.44,72042.8,-13.49,-18.55,-19.13,0,*63
1488852452.54,42811,7.44,72042.8,-13.49,-18.41,-19.07,0,*62
1488852453.81,42812,7.44,72040.0,-13.49,-18.69,-19.31,0,*6E
1488852455.07,42813,7.44,72040.8,-13.49,-18.65,-19.27,0,*64
1488852456.28,42814,7.44,72044.0,-13.47,-18.45,-19.03,0,*69
1488852457.55,42815,7.44,72044.3,-13.47,-18.31,-18.89,0,*68
1488852458.78,42816,7.44,72046.0,-13.47,-18.21,-18.89,0,*6A
1488852460.05,42817,7.44,72046.3,-13.47,-18.35,-18.89,0,*6E
1488852461.25,42818,7.44,72040.5,-13.47,-18.45,-19.07,0,*61
1488852462.55,42819,7.44,72042.0,-13.45,-18.35,-18.93,0,*69
1488852463.81,42820,7.44,72044.0,-13.45,-18.21,-18.89,0,*6D
1488852465.04,42821,7.44,72042.5,-13.45,-18.17,-18.79,0,*66
1488852466.27,42822,7.44,72040.8,-13.45,-18.21,-18.79,0,*60
1488852467.57,42823,7.44,72040.0,-13.45,-18.35,-18.93,0,*60
1488852468.8,42824,7.44,72044.3,-13.45,-18.49,-19.07,0,*60
1488852470.06,42825,7.44,72042.8,-13.43,-18.35,-18.93,0,*60
1488852471.3,42826,7.44,72042.5,-13.43,-18.17,-18.89,0,*68
1488852472.53,42827,7.44,72046.0,-13.43,-18.17,-18.89,0,*69
1488852473.74,42828,7.44,72044.5,-13.43,-18.17,-18.79,0,*69
1488852474.98,42829,7.44,72042.3,-13.41,-18.07,-18.69,0,*6A
1488852476.22,42830,7.44,72040.3,-13.41,-18.25,-18.79,0,*63
1488852477.49,42831,7.44,72044.5,-13.41,-18.31,-18.83,0,*62
1488852478.78,42832,7.44,72042.5,-13.41,-17.93,-18.55,0,*6D
1488852480.04,42833,7.44,72044.0,-13.37,-17.93,-18.69,0,*62
1488852481.28,42834,7.44,72042.0,-13.37,-18.07,-18.69,0,*67
1488852482.53,42835,7.44,72042.0,-13.41,-18.11,-18.73,0,*6B
1488852483.79,42836,7.44,72040.3,-13.37,-18.41,-18.93,0,*62
1488852485.04,42837,7.44,72044.0,-13.41,-18.11,-18.69,0,*62
1488852486.28,42838,7.44,72046.0,-13.37,-18.07,-18.69,0,*6B
1488852487.51,42839,7.44,72042.8,-13.37,-18.11,-18.79,0,*6C
1488852488.75,42840,7.44,72046.8,-13.37,-18.11,-18.69,0,*63
1488852490.01,42841,7.44,72046.5,-13.37,-18.25,-18.93,0,*60
1488852491.24,42842,7.44,72042.0,-13.37,-18.11,-18.79,0,*60
1488852492.46,42843,7.44,72040.5,-13.35,-18.07,-18.73,0,*6E
1488852493.7,42844,7.44,72040.3,-13.37,-17.87,-18.41,0,*6D
1488852494.94,42845,7.44,72042.0,-13.35,-17.73,-18.35,0,*66
1488852496.16,42846,7.44,72040.8,-13.35,-17.87,-18.49,0,*65
1488852497.4,42847,7.44,72040.8,-13.33,-17.87,-18.49,0,*62
1488852498.69,42848,7.44,72036.3,-13.33,-18.01,-18.59,0,*6D
1488852499.96,42849,7.44,72040.3,-13.33,-17.97,-18.65,0,*63
1488852501.23,42850,7.44,72046.0,-13.33,-18.31,-18.79,0,*65